Preview of NWS' New Version of Forecast
This preview is not operational and should not be used for support decisions.

Regional Weather Roundup (RWR)

Issued by National Weather Service (NWS)

                            
000
ASUS43 KDMX 241701
RWRIA 

WEATHER ROUNDUP FOR IOWA
NATIONAL WEATHER SERVICE DES MOINES IA
1200 PM CDT MON JUN 24 2019

NOTE: "FAIR" INDICATES FEW OR NO CLOUDS BELOW 12,000 FEET WITH NO
SIGNIFICANT WEATHER AND/OR OBSTRUCTIONS TO VISIBILITY.

* - THESE STATIONS ARE NOT NWS STATIONS...THUS NOT UNDER NWS
QUALITY CONTROL.  THEY ALSO DO NOT REPORT WEATHER SUCH 
AS PRECIPITATION OR FOG.  

IAZ001>003-012>014-020>022-031>034-043>046-241800-
   NORTHWEST IOWA
  
CITY           SKY/WX    TMP DP  RH WIND       PRES   REMARKS
CARROLL *      CLOUDY    68  59  73 W12       29.76R                  
CHEROKEE *     SUNNY     69  61  76 SW10      29.74F                  
DENISON *      MOSUNNY   70  61  73 W8        29.78S                  
LE MARS *      SUNNY     70  63  78 S10       29.73F                  
SHELDON *      PTSUNNY   68  66  94 SW9       29.71S                  
SIOUX CITY     SUNNY     73  61  65 SW7       29.75S                  
SPENCER        PTSUNNY   68  59  73 SW12      29.72F                  
STORM LAKE *     N/A     66  59  77 SW10      29.72F                  
$$
 
IAZ055>058-069>071-079>083-090>094-241800-
   SOUTHWEST IOWA
  
CITY           SKY/WX    TMP DP  RH WIND       PRES   REMARKS
ATLANTIC *     SUNNY     72  55  56 W12       29.77S                  
AUDUBON *      MOSUNNY   72  57  60 CALM      29.78S                  
CLARINDA *     SUNNY     73  57  56 W8G17     29.81S                  
COUNCIL BLFS * SUNNY     72  57  60 SW10G18   29.77S                  
CRESTON *      SUNNY     70  57  64 NW14G20   29.78S                  
HARLAN  *      MOSUNNY   70  59  68 SW10      29.78R                  
LAMONI         PTSUNNY   70  58  65 NW16G23   29.78S                  
RED OAK *      SUNNY     73  55  53 SW12G20   29.79S                  
SHENANDOAH *   SUNNY     73  57  56 W10       29.79S                  
$$
 
IAZ047>049-059>061-072>074-084-241800-
   CENTRAL IOWA
  
CITY           SKY/WX    TMP DP  RH WIND       PRES   REMARKS
AMES           MOSUNNY   69  59  70 NW14      29.72S                  
ANKENY *       PTSUNNY   70  59  68 W14       29.74S                  
BOONE *        PTSUNNY   70  64  83 W15G21    29.72S                  
CHARITON *     PTSUNNY   66  61  82 NW13      29.75F                  
DES MOINES     PTSUNNY   70  57  63 W14G24    29.73S                  
GRINNELL*      CLOUDY    67  60  77 W13       29.71F                  
KNOXVILLE *    CLOUDY    66  59  77 W16       29.74R                  
MARSHALLTOWN   CLOUDY    68  60  75 NW18      29.67F                  
NEWTON *       PTSUNNY   70  63  78 W15G22    29.72R                  
PELLA *        PTSUNNY   70  60  72 W17       29.73S                  
$$
 
IAZ004>006-015-016-023>025-035-036-241800-
   NORTH CENTRAL IOWA
  
CITY           SKY/WX    TMP DP  RH WIND       PRES   REMARKS
ALGONA *       PTSUNNY   66  59  77 W14       29.71R                  
CLARION *      MOSUNNY   63  61  94 W9        29.72S                  
ESTHERVILLE    CLOUDY    66  56  70 SW10      29.70S                  
FORT DODGE *   CLOUDY    67  59  75 W10       29.74R                  
MASON CITY     PTSUNNY   66  56  70 W13       29.70R                  
FOREST CITY *  FAIR      66  57  72 W7        29.70S                  
IOWA FALLS *   PTSUNNY   69  61  75 NW16G24   29.72S                  
$$

IAZ007>011-017>019-026>030-037>042-050>054-066-241800-
   NORTHEAST IOWA
  
CITY           SKY/WX    TMP DP  RH WIND       PRES   REMARKS
CEDAR RAPIDS   CLOUDY    68  62  81 W14       29.66S                  
CHARLES CITY * PTSUNNY   70  61  73 NW18      29.66S                  
CLINTON *      PTSUNNY   77  66  68 SW12      29.63F                  
DECORAH *        N/A     68  63  83 NW7G14    29.62S                  
DUBUQUE        PTSUNNY   75  66  73 SW9       29.61F                  
MONTICELLO *   CLOUDY    68  68 100 W16G23    29.63R                  
OELWEIN *      CLOUDY    66  64  94 NW10      29.66R                  
WATERLOO       CLOUDY    71  61  70 W13       29.64F                  
$$
 
IAZ064-065-067-068-078-241800-
   EAST CENTRAL IOWA
  
CITY           SKY/WX    TMP DP  RH WIND       PRES   REMARKS
DAVENPORT      FAIR      76  64  66 W15G28    29.65F                  
IOWA CITY      CLOUDY    72  63  73 W14       29.68S                  
MT. PLEASANT * PTSUNNY   72  63  73 W17       29.71R                  
MUSCATINE *    PTSUNNY   73  63  68 W18       29.67S                  
QUAD CITIES    FAIR      80  65  59 W13       29.63F HX  82           
$$
 
IAZ062-063-075>077-085>089-095>099-241800-
   SOUTHEAST IOWA
  
CITY           SKY/WX    TMP DP  RH WIND       PRES   REMARKS
BURLINGTON     PTSUNNY   74  62  66 W10G18    29.68F                  
FAIRFIELD *    CLOUDY    66  61  82 W15       29.72R                  
FORT MADISON * PTSUNNY   73  64  73 W10G17    29.71R                  
KEOKUK *       MOSUNNY   75  63  64 W15G25    29.71R                  
OSKALOOSA *    CLOUDY    67  60  78 W15       29.72S                  
OTTUMWA        CLOUDY    68  60  75 W10       29.72R                  
WASHINGTON *   CLOUDY    70  70 100 W16       29.68S                  
$$

ABBREVIATIONS USED IN REMARKS
   TC - TEMPERATURES IN CELSIUS
  WCI - WIND CHILL INDEX
   HX - HEAT INDEX
  VSB - VISIBILITY  
$$